Flag for Germany Weather past 2 weeks in Ravensburg, Baden-Württemberg, Germany

Now
45 °F

Mostly cloudy.


Feels Like: 45 °F
Forecast: 46 / 50 °F
Wind: 2 mph from North

Location: Friedrichshafen Airport

Current Time: Mar 29, 2015 at 1:55:26 AM

Latest Report: Mar 29, 2015 at 1:20 AM


Visibility: N/A

Pressure: 30.07 "Hg

Humidity: 81%

Dew point: 39 °F

Location of RavensburgLocation

Historic Weather in Ravensburg — Graph

°F

Ravensburg temperature yesterday

Maximum temperature yesterday: 55 °F (at 3:50 PM)
Minimum temperature yesterday: 32 °F (at 1:20 AM)
Average temperature yesterday: 44 °F

Past Weeks' High & Low Weather Summary

 TemperatureHumidityPressure
High63 °F (Mar 17, 3:20 PM)93% (Mar 18, 4:50 AM)30.27 "Hg (Mar 18, 4:50 AM)
Low28 °F (Mar 14, 5:50 AM)20% (Mar 19, 5:50 PM)29.56 "Hg (Mar 25, 1:20 PM)
Average44 °F66%30.04 "Hg
* Reported Mar 14 12:20 AM — Mar 29 12:50 AM, Ravensburg, Weather by CustomWeather, © 2015

Note: Actual official high and low records may vary slightly from our data, if they occured in-between our weather recording intervals... More about our weather records

Advertising

Ravensburg weather history for previous 24 hours

 ConditionsComfort  
Time TempWeatherWind HumidityBarometerVisibility
12:50 AM
Sun, Mar 29
45 °FOvercast.3 mph81%30.07 "HgN/A
12:20 AM45 °FOvercast.5 mph81%30.07 "HgN/A
11:50 PM
Sat, Mar 28
45 °FOvercast.3 mph81%30.09 "HgN/A
11:20 PM45 °FSprinkles. Overcast.7 mph81%30.09 "HgN/A
10:50 PM45 °FSprinkles. Overcast.8 mph76%30.09 "HgN/A
10:20 PM46 °FSprinkles. Overcast.8 mph66%30.09 "HgN/A
9:50 PM46 °FOvercast.9 mph66%30.09 "HgN/A
9:20 PM46 °FOvercast.8 mph66%30.09 "HgN/A
8:50 PM46 °FMostly cloudy.8 mph66%30.09 "HgN/A
8:20 PM46 °FOvercast.15 mph66%30.12 "HgN/A
7:50 PM46 °FLight rain. Mostly cloudy.13 mph66%30.12 "HgN/A
7:20 PM46 °FLight rain. Mostly cloudy.16 mph71%30.12 "HgN/A
6:50 PM48 °FLight rain. Mostly cloudy.13 mph66%30.09 "HgN/A
6:20 PM50 °FLight rain. Overcast.14 mph54%30.09 "HgN/A
5:50 PM50 °FSunny.5 mph50%30.07 "Hg10 mi
5:20 PM52 °FSunny.6 mph47%30.07 "Hg10 mi
4:50 PM54 °FSunny.5 mph38%30.07 "Hg10 mi
4:20 PM54 °FPassing clouds.5 mph41%30.07 "HgN/A
3:50 PM55 °FRefreshingly cool.8 mph36%30.07 "HgN/A
3:20 PM54 °FPassing clouds.7 mph41%30.07 "HgN/A
2:50 PM54 °FSunny.5 mph38%30.09 "Hg10 mi
2:20 PM54 °FPassing clouds.6 mph41%30.09 "HgN/A
1:50 PM54 °FPassing clouds.7 mph41%30.12 "HgN/A
1:20 PM52 °FPassing clouds.7 mph41%30.12 "HgN/A
12:50 PM52 °FPassing clouds.7 mph44%30.15 "HgN/A
12:20 PM50 °FPassing clouds.6 mph40%30.15 "HgN/A
11:50 AM50 °FPassing clouds.7 mph40%30.18 "HgN/A
11:20 AM50 °FPassing clouds.5 mph40%30.18 "HgN/A
10:50 AM48 °FPassing clouds.6 mph54%30.18 "HgN/A
10:20 AM48 °FSunny.3 mph54%30.21 "Hg10 mi
9:50 AM46 °FSunny.3 mph57%30.21 "Hg10 mi
9:20 AM45 °FSunny.2 mph61%30.21 "Hg10 mi
8:50 AM43 °FSunny.2 mph66%30.24 "Hg10 mi
8:20 AM37 °FScattered clouds.3 mph81%30.24 "HgN/A
7:50 AM36 °FPartly sunny.3 mph81%30.24 "HgN/A
7:20 AM34 °FPartly sunny.3 mph87%30.24 "HgN/A
6:50 AM34 °FPartly sunny.1 mph87%30.27 "HgN/A
6:20 AM34 °FOvercast.3 mph87%30.24 "HgN/A
5:50 AM34 °FPassing clouds.No wind81%30.24 "HgN/A
5:20 AM32 °FOvercast.No wind87%30.24 "HgN/A
4:20 AM32 °FPassing clouds.No wind87%30.24 "HgN/A
3:50 AM32 °FPassing clouds.5 mph87%30.24 "HgN/A
3:20 AM32 °FOvercast.2 mph93%30.27 "HgN/A
2:50 AM32 °FOvercast.1 mph93%30.24 "HgN/A
2:20 AM32 °FPassing clouds.No wind93%30.27 "HgN/A
1:50 AM32 °FOvercast.1 mph93%30.24 "HgN/A
1:20 AM32 °FPassing clouds.3 mph87%30.27 "HgN/A
Weather by CustomWeather, © 2015

See weather overviewHow to use our weather pages